カタログに戻る

CZ-3A DEB

LostGTO
NORAD 35564·DEBRIS·🇨🇳 China

打ち上げ Feb 2, 2007 から Xichang Satellite Launch Center

Loading…

TLE

古いSource: Space-Track

元期: Jan 10, 2022, 18:41 UTC

1 35564U 07003Y   22010.77861615  .00000065  00000-0  59344-3 0  9998
2 35564  25.6378 266.1675 7528503 243.4903  24.2717  1.88631081 91193

AllMySatでCZ-3A DEBをリアルタイム追跡

Download on the App Store